1494129600.29,10712,14.75,73088.3,-0.23,-2.31,-1.95,0,*69
1494129601.52,10713,14.75,73084.0,-0.23,-2.31,-1.95,0,*68
1494129602.76,10714,14.75,73084.3,-0.23,-2.35,-1.99,0,*67
1494129603.99,10715,14.75,73086.5,-0.23,-2.31,-1.95,0,*6E
1494129605.21,10716,14.75,73086.0,-0.25,-2.35,-1.99,0,*63
1494129606.42,10717,14.75,73084.8,-0.25,-2.35,-1.95,0,*6E
1494129607.66,10718,14.75,73084.3,-0.23,-2.31,-1.87,0,*60
1494129608.9,10719,14.75,73088.8,-0.23,-2.23,-1.83,0,*66
1494129610.11,10720,14.75,73090.0,-0.25,-2.23,-1.83,0,*6A
1494129611.33,10721,14.75,73084.0,-0.25,-2.35,-1.87,0,*68
1494129612.59,10722,14.75,73086.0,-0.23,-2.47,-1.87,0,*68
1494129613.8,10723,14.75,73088.8,-0.23,-2.43,-1.79,0,*6C
1494129615.04,10724,14.75,73090.5,-0.23,-2.35,-1.83,0,*6F
1494129616.26,10725,14.75,73086.0,-0.23,-2.31,-1.71,0,*67
1494129617.47,10726,14.75,73084.3,-0.25,-2.07,-1.59,0,*6D
1494129618.69,10727,14.75,73084.5,-0.25,-1.95,-1.67,0,*69
1494129619.93,10728,14.75,73086.3,-0.23,-1.87,-1.59,0,*6E
1494129621.17,10729,14.75,73084.8,-0.23,-1.83,-1.67,0,*66
1494129622.38,10730,14.75,73088.3,-0.23,-1.79,-1.59,0,*66
1494129623.59,10731,14.75,73088.0,-0.23,-1.71,-1.59,0,*6F
1494129624.81,10732,14.75,73090.0,-0.23,-1.71,-1.55,0,*60
1494129626.02,10733,14.75,73090.5,-0.23,-1.71,-1.59,0,*6D
1494129627.21,10734,14.75,73090.8,-0.25,-1.67,-1.59,0,*6B
1494129628.42,10735,14.75,73086.3,-0.23,-1.67,-1.59,0,*6C
1494129629.61,10736,14.75,73086.0,-0.25,-1.71,-1.59,0,*6E
1494129630.82,10737,14.75,73088.0,-0.23,-1.67,-1.59,0,*6E
1494129632.03,10738,14.75,73086.5,-0.23,-1.67,-1.59,0,*61
1494129633.24,10739,14.75,73084.3,-0.23,-1.67,-1.59,0,*60
1494129634.46,10740,14.75,73086.3,-0.23,-1.71,-1.67,0,*64
1494129635.66,10741,14.75,73086.8,-0.25,-1.71,-1.67,0,*63
1494129636.87,10742,14.75,73084.8,-0.23,-1.71,-1.59,0,*6B
1494129638.08,10743,14.75,73086.0,-0.23,-1.67,-1.59,0,*6D
1494129639.3,10744,14.75,73088.3,-0.25,-1.67,-1.47,0,*63
1494129640.5,10745,14.75,73086.5,-0.23,-1.59,-1.55,0,*6A
1494129641.69,10746,14.75,73084.3,-0.21,-1.63,-1.55,0,*62
1494129642.91,10747,14.75,73086.0,-0.23,-1.71,-1.67,0,*63
1494129644.1,10748,14.75,73088.0,-0.21,-1.67,-1.67,0,*69
1494129645.28,10749,14.75,73084.3,-0.21,-1.75,-1.75,0,*68
1494129646.5,10750,14.75,73086.8,-0.25,-1.79,-1.83,0,*61
1494129647.76,10751,14.75,73088.8,-0.23,-1.83,-1.87,0,*67
1494129648.97,10752,14.75,73084.0,-0.23,-1.79,-1.79,0,*60
1494129650.21,10753,14.75,73084.3,-0.23,-1.83,-1.79,0,*64
1494129651.48,10754,14.75,73082.0,-0.23,-1.87,-1.87,0,*66
1494129652.74,10755,14.75,73084.3,-0.23,-1.99,-1.95,0,*6B
1494129654.0,10756,14.75,73088.5,-0.23,-1.87,-1.83,0,*60
1494129655.27,10757,14.75,73084.0,-0.23,-1.83,-1.87,0,*61
1494129656.53,10758,14.75,73086.8,-0.23,-1.95,-1.87,0,*69
1494129657.8,10759,14.75,73086.8,-0.23,-1.99,-1.99,0,*6B
1494129659.05,10760,14.75,73086.0,-0.25,-1.99,-1.99,0,*67
1494129660.32,10761,14.75,73086.5,-0.23,-1.99,-1.99,0,*60
1494129661.58,10762,14.75,73084.8,-0.25,-2.11,-2.07,0,*62
1494129662.84,10763,14.75,73084.0,-0.23,-1.99,-2.11,0,*61
1494129664.11,10764,14.75,73086.3,-0.23,-1.99,-2.11,0,*66
1494129665.36,10765,14.75,73088.3,-0.25,-1.99,-2.11,0,*61
1494129666.58,10766,14.75,73086.8,-0.25,-2.11,-2.19,0,*69
1494129667.79,10767,14.75,73090.5,-0.23,-2.19,-2.23,0,*6F
1494129669.0,10768,14.75,73084.5,-0.23,-2.23,-2.35,0,*6E
1494129670.24,10769,14.75,73088.5,-0.23,-2.43,-2.47,0,*6C
1494129671.49,10770,14.75,73086.5,-0.25,-2.47,-2.47,0,*66
1494129672.76,10771,14.75,73086.8,-0.23,-2.47,-2.55,0,*62
1494129674.02,10772,14.75,73084.5,-0.23,-2.59,-2.55,0,*6E
1494129675.29,10773,14.75,73086.8,-0.23,-2.63,-2.55,0,*66
1494129676.55,10774,14.75,73084.5,-0.23,-2.71,-2.55,0,*62
1494129677.79,10775,14.75,73086.5,-0.23,-2.71,-2.43,0,*64
1494129679.01,10776,14.75,73084.5,-0.25,-2.71,-2.35,0,*60
1494129680.24,10777,14.75,73086.5,-0.23,-2.59,-2.35,0,*6D
1494129681.48,10778,14.75,73088.3,-0.23,-2.55,-2.19,0,*60
1494129682.72,10779,14.75,73084.5,-0.23,-2.55,-2.23,0,*68
1494129683.94,10780,14.75,73084.0,-0.25,-2.55,-2.19,0,*61
1494129685.15,10781,14.75,73084.8,-0.23,-2.43,-2.19,0,*61
1494129686.34,10782,14.75,73084.5,-0.25,-2.43,-2.31,0,*6E
1494129687.55,10783,14.75,73084.3,-0.23,-2.35,-2.35,0,*6C
1494129688.8,10784,14.75,73084.5,-0.25,-2.47,-2.55,0,*6E
1494129690.07,10785,14.75,73084.0,-0.23,-2.55,-2.47,0,*69
1494129691.32,10786,14.75,73084.8,-0.23,-2.59,-2.59,0,*69
1494129692.59,10787,14.75,73086.3,-0.23,-2.59,-2.71,0,*62
1494129693.83,10788,14.75,73084.8,-0.25,-2.59,-2.63,0,*68
1494129695.07,10789,14.75,73084.8,-0.25,-2.59,-2.75,0,*6E
1494129696.29,10790,14.75,73082.3,-0.25,-2.75,-2.83,0,*61
1494129697.48,10791,14.75,73084.0,-0.25,-2.87,-2.95,0,*6A
1494129698.69,10792,14.75,73086.3,-0.23,-3.07,-3.07,0,*6C
1494129699.9,10793,14.75,73082.8,-0.23,-3.19,-3.07,0,*62
1494129701.11,10794,14.75,73086.5,-0.23,-3.19,-3.11,0,*62
1494129702.31,10795,14.75,73082.5,-0.25,-3.19,-3.07,0,*62
1494129703.5,10796,14.75,73080.8,-0.25,-3.19,-3.11,0,*66
1494129704.68,10797,14.75,73084.5,-0.25,-3.19,-3.19,0,*6F
1494129705.9,10798,14.75,73082.3,-0.23,-3.31,-3.31,0,*66
1494129707.08,10799,14.75,73080.8,-0.25,-3.23,-3.31,0,*62
1494129708.32,10800,14.75,73084.3,-0.25,-3.43,-3.59,0,*65
1494129709.56,10801,14.75,73084.0,-0.25,-3.43,-3.71,0,*6E
1494129710.8,10802,14.75,73084.5,-0.27,-3.63,-3.91,0,*63
1494129712.06,10803,14.75,73084.8,-0.27,-3.55,-4.01,0,*69
1494129713.26,10804,14.75,73086.5,-0.29,-3.91,-4.33,0,*69
1494129714.5,10805,14.75,73084.3,-0.27,-4.01,-4.45,0,*69
1494129715.74,10806,14.75,73086.5,-0.27,-4.29,-4.81,0,*68
1494129716.98,10807,14.75,73084.0,-0.27,-5.03,-5.47,0,*6B
1494129718.23,10808,14.75,73086.3,-0.29,-5.61,-5.69,0,*62
1494129719.47,10809,14.75,73086.3,-0.27,-6.09,-5.93,0,*65
1494129720.68,10810,14.75,73086.0,-0.27,-6.39,-6.09,0,*6E
1494129721.91,10811,14.75,73084.3,-0.27,-6.63,-6.13,0,*6B
1494129723.11,10812,14.75,73086.0,-0.27,-6.73,-6.09,0,*62
1494129724.31,10813,14.75,73090.3,-0.29,-6.81,-6.35,0,*6F
1494129725.55,10814,14.75,73086.3,-0.27,-7.01,-6.51,0,*6D
1494129726.79,10815,14.75,73086.8,-0.27,-7.31,-6.89,0,*6A
1494129728.05,10816,14.75,73090.3,-0.27,-7.65,-6.93,0,*63
1494129729.27,10817,14.75,73084.5,-0.29,-7.87,-6.93,0,*60
1494129730.53,10818,14.75,73084.3,-0.27,-7.95,-7.01,0,*68
1494129731.77,10819,14.75,73086.0,-0.27,-8.37,-7.01,0,*6E
1494129732.97,10820,14.75,73086.3,-0.29,-8.67,-6.81,0,*66
1494129734.2,10821,14.75,73086.8,-0.27,-8.75,-6.27,0,*66
1494129735.44,10822,14.75,73084.5,-0.27,-8.45,-5.69,0,*6F
1494129736.69,10823,14.75,73090.5,-0.29,-7.99,-5.11,0,*61
1494129737.95,10824,14.75,73086.5,-0.27,-7.39,-4.77,0,*63
1494129739.19,10825,14.75,73088.0,-0.29,-7.01,-4.69,0,*68
1494129740.44,10826,14.75,73084.3,-0.27,-6.51,-4.69,0,*61
1494129741.68,10827,14.75,73086.3,-0.27,-6.13,-4.81,0,*60
1494129742.92,10828,14.75,73088.3,-0.27,-6.09,-4.93,0,*67
1494129744.15,10829,14.75,73086.8,-0.29,-6.09,-5.07,0,*64
1494129745.37,10830,14.75,73084.5,-0.29,-6.35,-5.19,0,*6C
1494129746.59,10831,14.75,73084.3,-0.29,-6.39,-5.19,0,*61
1494129747.81,10832,14.75,73084.5,-0.29,-6.47,-5.19,0,*6B
1494129749.04,10833,14.75,73086.0,-0.29,-6.73,-5.23,0,*64
1494129750.26,10834,14.75,73086.3,-0.29,-6.77,-5.23,0,*67
1494129751.51,10835,14.75,73086.8,-0.29,-6.63,-5.23,0,*63
1494129752.73,10836,14.75,73084.3,-0.29,-6.47,-5.19,0,*6F
1494129753.95,10837,14.75,73090.3,-0.29,-6.39,-5.23,0,*6E
1494129755.15,10838,14.75,73084.5,-0.29,-6.39,-5.55,0,*60
1494129756.35,10839,14.75,73086.8,-0.29,-6.51,-6.01,0,*6D
1494129757.56,10840,14.75,73088.3,-0.29,-6.93,-6.39,0,*66
1494129758.8,10841,14.75,73086.0,-0.27,-7.27,-6.89,0,*6C
1494129760.06,10842,14.75,73086.8,-0.27,-7.69,-7.31,0,*67
1494129761.3,10843,14.75,73090.3,-0.29,-7.99,-7.65,0,*66
1494129762.51,10844,14.75,73084.0,-0.29,-8.33,-7.95,0,*61
1494129763.73,10845,14.75,73086.3,-0.27,-8.67,-8.37,0,*68
1494129764.94,10846,14.75,73084.3,-0.29,-9.19,-8.81,0,*60
1494129766.16,10847,14.75,73084.3,-0.29,-9.75,-9.15,0,*67
1494129767.38,10848,14.75,73088.8,-0.29,-10.31,-9.45,0,*55
1494129768.6,10849,14.75,73086.0,-0.29,-10.85,-9.57,0,*58
1494129769.8,10850,14.75,73086.3,-0.29,-11.41,-9.71,0,*5D
1494129771.03,10851,14.75,73084.0,-0.29,-11.77,-9.71,0,*59
1494129772.27,10852,14.75,73084.3,-0.29,-11.77,-9.57,0,*5E
1494129773.52,10853,14.75,73086.3,-0.29,-11.89,-9.37,0,*58
1494129774.8,10854,14.75,73084.0,-0.31,-11.93,-9.11,0,*59
1494129776.05,10855,14.75,73084.8,-0.29,-11.93,-8.51,0,*54
1494129777.25,10856,14.75,73086.0,-0.29,-12.03,-8.21,0,*5A
1494129778.53,10857,14.75,73088.5,-0.31,-11.93,-7.69,0,*5B
1494129779.77,10858,14.75,73084.5,-0.31,-11.33,-6.85,0,*5D
1494129781.03,10859,14.75,73086.5,-0.31,-10.63,-6.31,0,*57
1494129782.26,10860,14.75,73088.3,-0.31,-9.89,-5.89,0,*61
1494129783.54,10861,14.75,73084.5,-0.31,-9.11,-5.61,0,*67
1494129784.79,10862,14.75,73086.5,-0.31,-8.41,-5.27,0,*62
1494129786.06,10863,14.75,73086.0,-0.31,-7.73,-5.07,0,*6F
1494129787.29,10864,14.75,73088.0,-0.29,-7.15,-4.89,0,*66
1494129788.51,10865,14.75,73086.8,-0.29,-6.77,-4.77,0,*63
1494129789.7,10866,14.75,73090.8,-0.29,-6.39,-4.65,0,*69
1494129790.9,10867,14.75,73086.3,-0.29,-6.13,-4.65,0,*60
1494129792.1,10868,14.75,73086.3,-0.29,-5.97,-4.53,0,*65
1494129793.34,10869,14.75,73088.5,-0.27,-5.69,-4.29,0,*66
1494129794.55,10870,14.75,73084.3,-0.27,-5.47,-4.25,0,*6E
1494129795.76,10871,14.75,73084.3,-0.27,-5.43,-4.13,0,*6E
1494129796.98,10872,14.75,73084.3,-0.29,-5.23,-4.05,0,*62
1494129798.2,10873,14.75,73084.3,-0.29,-5.07,-4.17,0,*66
1494129799.41,10874,14.75,73086.0,-0.29,-4.81,-4.13,0,*6A
1494129800.63,10875,14.75,73086.8,-0.29,-4.81,-4.29,0,*62
1494129801.84,10876,14.75,73090.5,-0.29,-4.81,-4.45,0,*6B
1494129803.1,10877,14.75,73084.5,-0.27,-4.89,-4.69,0,*62
1494129804.36,10878,14.75,73086.5,-0.27,-4.89,-4.81,0,*6B
1494129805.62,10879,14.75,73082.5,-0.27,-5.11,-4.93,0,*69
1494129806.84,10880,14.75,73084.0,-0.27,-5.55,-5.43,0,*63
1494129808.05,10881,14.75,73086.5,-0.27,-6.01,-5.47,0,*64
1494129809.27,10882,14.75,73086.8,-0.27,-6.35,-5.47,0,*60
1494129810.49,10883,14.75,73086.0,-0.27,-6.73,-5.55,0,*60
1494129811.75,10884,14.75,73086.8,-0.27,-7.01,-5.69,0,*6C
1494129813.02,10885,14.75,73084.5,-0.27,-7.57,-5.73,0,*65
1494129814.24,10886,14.75,73086.3,-0.25,-7.65,-5.55,0,*61
1494129815.46,10887,14.75,73090.0,-0.25,-7.39,-5.43,0,*6E
1494129816.68,10888,14.75,73088.5,-0.25,-7.11,-5.27,0,*69
1494129817.93,10889,14.75,73084.5,-0.23,-7.11,-5.19,0,*63
1494129819.15,10890,14.75,73088.3,-0.25,-6.89,-5.15,0,*61
1494129820.38,10891,14.75,73090.3,-0.25,-6.89,-5.03,0,*67
1494129821.57,10892,14.75,73086.5,-0.25,-6.89,-4.99,0,*66
1494129822.8,10893,14.75,73084.5,-0.23,-6.85,-4.85,0,*60
1494129824.0,10894,14.75,73086.8,-0.25,-6.77,-4.61,0,*66
1494129825.2,10895,14.75,73084.0,-0.25,-6.59,-4.37,0,*68
1494129826.44,10896,14.75,73086.3,-0.23,-6.35,-4.01,0,*62
1494129827.63,10897,14.75,73088.5,-0.25,-6.09,-3.87,0,*63
1494129828.87,10898,14.75,73086.5,-0.25,-5.77,-3.71,0,*6F
1494129830.08,10899,14.75,73086.8,-0.25,-5.39,-3.47,0,*61
1494129831.31,10900,14.75,73086.3,-0.23,-5.19,-3.23,0,*66
1494129832.52,10901,14.75,73084.3,-0.25,-4.89,-3.11,0,*68
1494129833.75,10902,14.75,73086.8,-0.23,-4.77,-2.95,0,*61
1494129834.99,10903,14.75,73084.8,-0.23,-4.41,-2.75,0,*6B
1494129836.2,10904,14.75,73086.0,-0.21,-4.17,-2.67,0,*6E
1494129837.45,10905,14.75,73086.5,-0.23,-3.95,-2.59,0,*6D
1494129838.69,10906,14.75,73084.8,-0.23,-3.87,-2.59,0,*6D
1494129839.95,10907,14.75,73084.0,-0.23,-3.71,-2.55,0,*69
1494129841.22,10908,14.75,73086.5,-0.23,-3.59,-2.55,0,*6C
1494129842.46,10909,14.75,73084.5,-0.21,-3.43,-2.51,0,*60
1494129843.68,10910,14.75,73088.8,-0.21,-3.31,-2.51,0,*6D
1494129844.91,10911,14.75,73084.5,-0.17,-3.27,-2.43,0,*6D
1494129846.09,10912,14.75,73084.0,-0.21,-3.19,-2.43,0,*66
1494129847.34,10913,14.75,73086.3,-0.17,-3.19,-2.55,0,*65
1494129848.55,10914,14.75,73084.5,-0.21,-3.19,-2.55,0,*67
1494129849.74,10915,14.75,73084.5,-0.21,-3.27,-2.79,0,*65
1494129850.99,10916,14.75,73084.8,-0.17,-3.47,-2.95,0,*67
1494129852.25,10917,14.75,73086.5,-0.17,-3.59,-2.95,0,*69
1494129853.5,10918,14.75,73086.0,-0.17,-3.47,-2.95,0,*69
1494129854.74,10919,14.75,73080.8,-0.17,-3.43,-2.91,0,*68
1494129855.96,10920,14.75,73082.5,-0.17,-3.31,-2.91,0,*67
1494129857.15,10921,14.75,73080.8,-0.15,-3.23,-2.87,0,*60
1494129858.33,10922,14.75,73086.3,-0.15,-3.23,-2.91,0,*64
1494129859.52,10923,14.75,73084.5,-0.15,-3.27,-3.11,0,*68
1494129860.72,10924,14.75,73084.5,-0.15,-3.27,-3.11,0,*6F
1494129861.91,10925,14.75,73084.5,-0.15,-3.27,-3.15,0,*6A
1494129863.09,10926,14.75,73084.5,-0.15,-3.23,-3.23,0,*68
1494129864.33,10927,14.75,73084.0,-0.13,-3.35,-3.43,0,*6E
1494129865.54,10928,14.75,73084.3,-0.15,-3.35,-3.63,0,*65
1494129866.81,10929,14.75,73084.3,-0.13,-3.51,-4.01,0,*63
1494129868.03,10930,14.75,73084.8,-0.15,-3.67,-4.13,0,*6B
1494129869.26,10931,14.75,73086.3,-0.13,-3.67,-4.17,0,*68
1494129870.51,10932,14.75,73088.0,-0.13,-4.01,-4.45,0,*6B
1494129871.76,10933,14.75,73086.5,-0.13,-4.05,-4.69,0,*60
1494129873.01,10934,14.75,73082.5,-0.13,-4.21,-4.77,0,*6E
1494129874.25,10935,14.75,73086.5,-0.13,-4.33,-4.93,0,*66
1494129875.5,10936,14.75,73086.0,-0.13,-4.65,-5.23,0,*6C
1494129876.74,10937,14.75,73084.3,-0.15,-4.89,-5.31,0,*6A
1494129877.99,10938,14.75,73082.3,-0.13,-5.23,-5.47,0,*63
1494129879.23,10939,14.75,73084.8,-0.13,-5.47,-5.69,0,*6C
1494129880.5,10940,14.75,73086.5,-0.13,-5.69,-5.73,0,*65
1494129881.71,10941,14.75,73082.5,-0.11,-6.05,-5.81,0,*62
1494129882.96,10942,14.75,73084.8,-0.13,-6.35,-5.89,0,*68
1494129884.18,10943,14.75,73084.3,-0.11,-6.55,-5.85,0,*61
1494129885.43,10944,14.75,73086.0,-0.13,-6.77,-5.89,0,*68
1494129886.67,10945,14.75,73086.5,-0.11,-7.05,-5.85,0,*63
1494129887.9,10946,14.75,73084.0,-0.15,-7.19,-5.69,0,*6B
1494129889.09,10947,14.75,73086.8,-0.15,-7.19,-5.47,0,*66
1494129890.31,10948,14.75,73084.0,-0.13,-7.15,-5.43,0,*67
1494129891.53,10949,14.75,73086.8,-0.13,-7.19,-5.35,0,*6B
1494129892.76,10950,14.75,73084.5,-0.15,-7.19,-5.31,0,*61
1494129894.0,10951,14.75,73086.0,-0.13,-7.15,-5.31,0,*6A
1494129895.26,10952,14.75,73086.0,-0.13,-7.15,-5.23,0,*6A
1494129896.53,10953,14.75,73086.8,-0.13,-7.01,-5.19,0,*67
1494129897.8,10954,14.75,73084.0,-0.13,-7.01,-5.11,0,*68
1494129899.07,10955,14.75,73080.5,-0.13,-6.93,-4.89,0,*63
1494129900.32,10956,14.75,73084.0,-0.13,-6.77,-4.77,0,*6B
1494129901.56,10957,14.75,73086.0,-0.13,-6.63,-4.65,0,*6C
1494129902.78,10958,14.75,73082.5,-0.13,-6.35,-4.53,0,*65
1494129904.0,10959,14.75,73090.5,-0.11,-6.27,-4.57,0,*61
1494129905.19,10960,14.75,73084.3,-0.11,-6.09,-4.49,0,*68
1494129906.38,10961,14.75,73082.5,-0.11,-5.97,-4.53,0,*66
1494129907.57,10962,14.75,73084.3,-0.11,-5.97,-4.61,0,*64
1494129908.79,10963,14.75,73086.5,-0.11,-5.69,-4.49,0,*6E
1494129910.03,10964,14.75,73082.8,-0.13,-5.73,-4.57,0,*6F
1494129911.29,10965,14.75,73080.0,-0.09,-5.77,-4.73,0,*57
1494129912.57,10966,14.75,73084.3,-0.13,-5.85,-4.81,0,*6F
1494129913.81,10967,14.75,73082.5,-0.11,-6.19,-5.15,0,*66
1494129915.05,10968,14.75,73084.0,-0.11,-6.23,-5.03,0,*67
1494129916.27,10969,14.75,73084.8,-0.11,-6.31,-4.85,0,*6A
1494129917.49,10970,14.75,73084.5,-0.11,-6.35,-4.73,0,*6F
1494129918.7,10971,14.75,73082.3,-0.11,-6.19,-4.49,0,*69
1494129919.9,10972,14.75,73084.8,-0.11,-6.09,-4.37,0,*62
1494129921.11,10973,14.75,73080.8,-0.11,-5.85,-4.09,0,*69
1494129922.29,10974,14.75,73084.5,-0.11,-5.43,-3.87,0,*65
1494129923.48,10975,14.75,73086.8,-0.11,-5.39,-3.95,0,*6A
1494129924.69,10976,14.75,73082.3,-0.11,-5.19,-3.87,0,*68
1494129925.93,10977,14.75,73084.5,-0.13,-5.07,-3.87,0,*64
1494129927.18,10978,14.75,73084.5,-0.13,-5.07,-3.79,0,*6A
1494129928.38,10979,14.75,73084.5,-0.11,-4.85,-3.75,0,*6E
1494129929.61,10980,14.75,73084.5,-0.11,-4.73,-3.71,0,*65
1494129930.79,10981,14.75,73082.5,-0.11,-4.65,-3.83,0,*6E
1494129931.98,10982,14.75,73080.5,-0.11,-4.61,-3.87,0,*6D
1494129933.19,10983,14.75,73084.8,-0.11,-4.61,-4.01,0,*65
1494129934.4,10984,14.75,73082.3,-0.11,-4.85,-4.29,0,*62
1494129935.6,10985,14.75,73082.8,-0.11,-4.93,-4.41,0,*6A
1494129936.82,10986,14.75,73086.8,-0.11,-5.07,-4.61,0,*67
1494129938.06,10987,14.75,73080.3,-0.11,-5.31,-4.73,0,*60
1494129939.28,10988,14.75,73086.0,-0.11,-5.51,-4.89,0,*6C
1494129940.53,10989,14.75,73086.5,-0.11,-5.85,-5.15,0,*60
1494129941.74,10990,14.75,73086.0,-0.11,-5.97,-4.93,0,*64
1494129943.01,10991,14.75,73086.3,-0.09,-6.19,-5.03,0,*51
1494129944.23,10992,14.75,73084.5,-0.11,-6.47,-5.31,0,*61
1494129945.44,10993,14.75,73086.3,-0.11,-7.01,-5.43,0,*66
1494129946.7,10994,14.75,73080.8,-0.09,-7.35,-5.69,0,*57
1494129947.94,10995,14.75,73086.8,-0.11,-7.77,-5.69,0,*69
1494129949.16,10996,14.75,73084.8,-0.11,-7.83,-5.65,0,*6D
1494129950.37,10997,14.75,73086.0,-0.11,-8.21,-5.93,0,*62
1494129951.64,10998,14.75,73084.3,-0.09,-8.51,-6.19,0,*52
1494129952.84,10999,14.75,73084.0,-0.11,-8.85,-6.31,0,*69
1494129954.03,11000,14.75,73084.5,-0.11,-9.27,-6.31,0,*68
1494129955.22,11001,14.75,73084.5,-0.11,-9.19,-6.09,0,*6F
1494129956.44,11002,14.75,73082.0,-0.11,-8.85,-5.69,0,*6D
1494129957.68,11003,14.75,73084.0,-0.09,-8.59,-5.93,0,*51
1494129958.86,11004,14.75,73082.0,-0.11,-8.45,-5.97,0,*66
1494129960.07,11005,14.75,73082.8,-0.09,-8.45,-5.97,0,*5E
1494129961.28,11006,14.75,73084.3,-0.11,-8.33,-5.81,0,*62
1494129962.52,11007,14.75,73082.8,-0.09,-8.33,-5.85,0,*5E
1494129963.75,11008,14.75,73082.0,-0.11,-8.03,-5.65,0,*65
1494129965.0,11009,14.75,73084.0,-0.11,-8.07,-5.65,0,*60
1494129966.21,11010,14.75,73084.3,-0.11,-7.91,-5.43,0,*6C
1494129967.45,11011,14.75,73086.8,-0.11,-7.65,-5.15,0,*65
1494129968.66,11012,14.75,73084.0,-0.11,-7.53,-4.93,0,*6C
1494129969.9,11013,14.75,73080.3,-0.09,-7.23,-4.73,0,*5D
1494129971.09,11014,14.75,73086.5,-0.11,-6.77,-4.49,0,*6A
1494129972.3,11015,14.75,73084.0,-0.11,-6.63,-4.25,0,*64
1494129973.49,11016,14.75,73084.0,-0.11,-6.47,-4.25,0,*61
1494129974.68,11017,14.75,73084.3,-0.11,-6.35,-4.13,0,*60
1494129975.9,11018,14.75,73082.0,-0.11,-6.09,-4.01,0,*63
1494129977.11,11019,14.75,73080.5,-0.09,-6.05,-4.09,0,*5F
1494129978.35,11020,14.75,73084.5,-0.09,-5.93,-4.09,0,*59
1494129979.59,11021,14.75,73082.3,-0.11,-5.69,-4.01,0,*6C
1494129980.79,11022,14.75,73080.8,-0.09,-5.43,-3.95,0,*54
1494129981.98,11023,14.75,73084.8,-0.11,-5.39,-4.09,0,*63
1494129983.22,11024,14.75,73086.3,-0.11,-5.27,-4.01,0,*63
1494129984.46,11025,14.75,73082.0,-0.11,-5.15,-4.01,0,*63
1494129985.67,11026,14.75,73080.5,-0.11,-5.03,-4.17,0,*60
1494129986.88,11027,14.75,73084.3,-0.11,-5.03,-4.25,0,*60
1494129988.1,11028,14.75,73082.3,-0.11,-5.15,-4.41,0,*6A
1494129989.32,11029,14.75,73084.0,-0.11,-5.31,-4.49,0,*65
1494129990.54,11030,14.75,73080.3,-0.09,-5.55,-4.61,0,*5C
1494129991.78,11031,14.75,73082.5,-0.09,-5.81,-4.53,0,*55
1494129992.99,11032,14.75,73086.8,-0.09,-5.97,-4.53,0,*51
1494129994.2,11033,14.75,73082.8,-0.09,-6.05,-4.49,0,*53
1494129995.42,11034,14.75,73078.8,-0.09,-5.97,-4.41,0,*54
1494129996.66,11035,14.75,73082.0,-0.09,-5.93,-4.61,0,*53
1494129997.87,11036,14.75,73084.3,-0.09,-6.05,-4.65,0,*58
1494129999.09,11037,14.75,73082.5,-0.07,-6.13,-4.81,0,*5A
1494130000.33,11038,14.75,73086.0,-0.09,-6.43,-4.89,0,*56
1494130001.57,11039,14.75,73082.5,-0.09,-6.43,-4.85,0,*5B
1494130002.78,11040,14.75,73080.8,-0.11,-6.35,-4.77,0,*60
1494130004.01,11041,14.75,73080.3,-0.11,-6.55,-5.03,0,*65
1494130005.22,11042,14.75,73084.0,-0.11,-6.77,-5.19,0,*6D
1494130006.44,11043,14.75,73080.3,-0.11,-6.89,-5.19,0,*6D
1494130007.68,11044,14.75,73080.5,-0.11,-7.27,-5.31,0,*65
1494130008.92,11045,14.75,73084.3,-0.11,-7.35,-5.19,0,*6D
1494130010.17,11046,14.75,73084.3,-0.11,-7.35,-5.03,0,*65
1494130011.41,11047,14.75,73084.8,-0.11,-7.39,-5.03,0,*68
1494130012.64,11048,14.75,73084.0,-0.11,-7.39,-4.85,0,*68
1494130013.88,11049,14.75,73086.3,-0.11,-7.27,-4.73,0,*6F
1494130015.09,11050,14.75,73084.0,-0.11,-7.23,-4.73,0,*63
1494130016.31,11051,14.75,73084.0,-0.11,-7.15,-4.77,0,*63
1494130017.55,11052,14.75,73084.0,-0.09,-7.49,-5.07,0,*56
1494130018.81,11053,14.75,73080.8,-0.09,-7.69,-5.07,0,*55
1494130020.06,11054,14.75,73084.0,-0.11,-7.95,-5.15,0,*6B
1494130021.27,11055,14.75,73084.0,-0.11,-8.21,-5.15,0,*6A
1494130022.52,11056,14.75,73086.0,-0.11,-8.07,-5.07,0,*6E
1494130023.74,11057,14.75,73084.5,-0.11,-8.21,-5.03,0,*6F
1494130025.0,11058,14.75,73084.5,-0.09,-7.95,-4.89,0,*5A
1494130026.24,11059,14.75,73086.0,-0.11,-7.65,-4.73,0,*68
1494130027.48,11060,14.75,73086.3,-0.09,-7.35,-4.61,0,*5D
1494130028.72,11061,14.75,73086.0,-0.09,-7.27,-4.65,0,*5B
1494130029.92,11062,14.75,73080.3,-0.11,-7.11,-4.65,0,*64
1494130031.16,11063,14.75,73084.0,-0.09,-6.97,-4.65,0,*53
1494130032.35,11064,14.75,73086.5,-0.11,-6.89,-4.65,0,*62
1494130033.56,11065,14.75,73086.0,-0.09,-6.85,-4.61,0,*52
1494130034.81,11066,14.75,73084.0,-0.09,-6.97,-4.65,0,*56
1494130036.04,11067,14.75,73086.0,-0.09,-6.89,-4.73,0,*5F
1494130037.28,11068,14.75,73084.5,-0.11,-6.97,-4.73,0,*66
1494130038.52,11069,14.75,73082.5,-0.09,-7.23,-4.77,0,*54
1494130039.79,11070,14.75,73082.0,-0.09,-7.57,-4.85,0,*52
1494130041.03,11071,14.75,73086.3,-0.11,-7.91,-5.07,0,*6B
1494130042.29,11072,14.75,73086.3,-0.09,-8.03,-4.93,0,*59
1494130043.53,11073,14.75,73082.8,-0.09,-8.29,-5.07,0,*5C
1494130044.74,11074,14.75,73080.5,-0.11,-8.33,-5.15,0,*6A
1494130045.98,11075,14.75,73082.3,-0.09,-8.29,-4.93,0,*56
1494130047.22,11076,14.75,73082.3,-0.09,-8.29,-5.03,0,*5D
1494130048.46,11077,14.75,73084.3,-0.09,-8.33,-5.03,0,*57
1494130049.68,11078,14.75,73086.5,-0.11,-8.21,-5.03,0,*62
1494130050.9,11079,14.75,73086.3,-0.11,-8.29,-5.07,0,*6F
1494130052.14,11080,14.75,73086.3,-0.09,-8.17,-5.07,0,*5D
1494130053.36,11081,14.75,73086.3,-0.11,-8.45,-5.15,0,*61
1494130054.6,11082,14.75,73086.5,-0.09,-8.33,-5.03,0,*5D
1494130055.84,11083,14.75,73082.8,-0.09,-8.17,-5.03,0,*5A
1494130057.11,11084,14.75,73080.5,-0.09,-7.95,-4.85,0,*57
1494130058.32,11085,14.75,73082.8,-0.07,-7.87,-4.81,0,*5F
1494130059.56,11086,14.75,73080.3,-0.09,-7.83,-4.89,0,*5E
1494130060.82,11087,14.75,73080.5,-0.09,-7.91,-4.93,0,*57
1494130062.08,11088,14.75,73086.3,-0.09,-7.91,-4.89,0,*53
1494130063.34,11089,14.75,73086.0,-0.09,-7.95,-4.93,0,*5D
1494130064.6,11090,14.75,73082.8,-0.09,-7.91,-4.85,0,*56
1494130065.84,11091,14.75,73084.3,-0.07,-7.77,-4.81,0,*55
1494130067.07,11092,14.75,73084.3,-0.07,-7.77,-4.85,0,*52
1494130068.31,11093,14.75,73080.8,-0.05,-7.83,-4.85,0,*5A
1494130069.55,11094,14.75,73084.3,-0.07,-7.77,-4.89,0,*58
1494130070.79,11095,14.75,73086.3,-0.07,-7.65,-4.85,0,*56
1494130072.05,11096,14.75,73080.8,-0.05,-7.69,-4.85,0,*5B
1494130073.31,11097,14.75,73082.3,-0.05,-7.61,-4.81,0,*56
1494130074.52,11098,14.75,73082.5,-0.07,-7.65,-4.99,0,*56
1494130075.73,11099,14.75,73086.5,-0.07,-7.53,-4.85,0,*5F
1494130076.94,11100,14.75,73082.3,-0.07,-7.53,-4.81,0,*5A
1494130078.18,11101,14.75,73086.3,-0.07,-7.57,-4.81,0,*5F
1494130079.42,11102,14.75,73082.3,-0.07,-7.61,-4.81,0,*59
1494130080.66,11103,14.75,73082.3,-0.07,-7.61,-4.85,0,*5C
1494130081.92,11104,14.75,73082.3,-0.05,-7.57,-4.77,0,*51
1494130083.19,11105,14.75,73082.3,-0.05,-7.57,-4.77,0,*50
1494130084.45,11106,14.75,73086.8,-0.05,-7.61,-4.85,0,*5B
1494130085.69,11107,14.75,73080.5,-0.07,-7.65,-4.85,0,*5C
1494130086.95,11108,14.75,73082.8,-0.05,-7.61,-4.85,0,*55
1494130088.22,11109,14.75,73082.5,-0.05,-7.57,-4.77,0,*5C
1494130089.43,11110,14.75,73082.8,-0.07,-7.53,-4.81,0,*5B
1494130090.69,11111,14.75,73082.8,-0.05,-7.61,-4.81,0,*59
1494130091.93,11112,14.75,73082.5,-0.07,-7.43,-4.69,0,*5E
1494130093.13,11113,14.75,73086.3,-0.07,-7.49,-4.73,0,*5E
1494130094.37,11114,14.75,73082.3,-0.05,-7.39,-4.65,0,*5B
1494130095.6,11115,14.75,73084.3,-0.07,-7.43,-4.73,0,*52
1494130096.84,11116,14.75,73086.0,-0.07,-7.35,-4.69,0,*5B
1494130098.08,11117,14.75,73086.8,-0.07,-7.43,-4.69,0,*5B
1494130099.32,11118,14.75,73082.5,-0.07,-7.61,-4.85,0,*56
1494130100.52,11119,14.75,73082.8,-0.07,-7.49,-4.69,0,*5F
1494130101.76,11120,14.75,73084.8,-0.05,-7.39,-4.65,0,*5C
1494130102.99,11121,14.75,73084.0,-0.05,-7.27,-4.57,0,*53
1494130104.18,11122,14.75,73082.0,-0.07,-7.23,-4.61,0,*53
1494130105.37,11123,14.75,73082.3,-0.07,-7.23,-4.61,0,*52
1494130106.56,11124,14.75,73080.3,-0.07,-7.23,-4.61,0,*55
1494130107.75,11125,14.75,73084.0,-0.07,-7.23,-4.61,0,*54